Regional Weather Roundup
Issued by NWS Charleston, SC

Current Version | Previous Version | Text Only | Print | Product List | Glossary Off
Versions: 1 2 3 4 5 6 7 8 9 10 11 12 13 14 15 16 17 18 19 20 21 22 23 24 25 26 27 28 29 30 31 32 33 34 35 36 37 38 39 40 41 42 43 44 45 46 47 48 49 50

000
ASUS42 KCHS 240212
RWRCHS

REGIONAL WEATHER ROUNDUP
NATIONAL WEATHER SERVICE CHARLESTON SC
900 PM EST MON JAN 23 2017

NOTE: "FAIR" INDICATES FEW OR NO CLOUDS BELOW 12,000 FEET WITH NO
SIGNIFICANT WEATHER AND/OR OBSTRUCTIONS TO VISIBILITY.

NOT ALL STATIONS ARE QUALITY CONTROLLED. USE DATA WITH CAUTION...
ESPECIALLY DEWPOINT OBSERVATIONS.

SCZ027-030-031-034>040-042>050-240300-
...SOUTHEAST SOUTH CAROLINA...

CITY           SKY/WX    TMP DP  RH WIND       PRES   REMARKS
N CHARLESTON   PTCLDY    55  50  83 W6        29.45R
WATERFRONT PRK   N/A     56  52  86 CALM      29.43R
MOUNT PLEASANT FAIR      55  52  88 W3        29.45R
JOHNS ISLAND   FAIR      55  52  88 SW3       29.45R
PINOPOLIS        N/A     55  52  88 W7        29.36R
MONCKS CORNER  FAIR      52  48  87 CALM      29.45R
SUMMERVILLE    FAIR      54  54 100 W3        29.46R
BEAUFORT MCAS  PTCLDY    59  50  72 W18G26    29.49R
BEAUFORT ARPT  FAIR      59  50  72 W16G25    29.49R
HILTON HEAD IS CLEAR     59  50  72 W15G29    29.50R
WALTERBORO     CLOUDY    57  54  88 W12       29.47R
ALLENDALE      CLOUDY    59  50  72 W9        29.49R

...SOUTHERN MIDLANDS AND PEE DEE...

CITY           SKY/WX    TMP DP  RH WIND       PRES   REMARKS
GEORGETOWN     CLOUDY    54  50  87 W5        29.44R
KINGSTREE      CLOUDY    54  48  82 W5        29.44R
ORANGEBURG     CLOUDY    58  50  75 W9        29.46R
BARNWELL       CLOUDY    59  52  77 W14       29.50R
AIKEN          DRIZZLE   54  50  87 W13       29.53R
MANNING        MOCLDY    54  48  82 NW7       29.44R
COLUMBIA       CLOUDY    57  49  74 W9        29.46R
SUMTER         CLOUDY    55  49  81 NW7       29.42R
FLORENCE       PTCLDY    52  49  89 W7        29.43R
MYRTLE BEACH   PTCLDY    54  46  76 W8        29.43R
N MYRTLE BEACH CLEAR     51  49  92 W6        29.40R

$$

GAZ063-065-086>088-099>101-113>116-118-119-134>141-150-240300-
...SOUTHEAST GEORGIA...

CITY           SKY/WX    TMP DP  RH WIND       PRES   REMARKS
SAVANNAH ARPT  CLEAR     59  47  64 W16G28    29.53R
HUNTER AAF     CLEAR     58  53  82 W17G25    29.50R
FORT STEWART   CLEAR     58  47  66 W15G21    29.54R
STATESBORO     CLEAR     57  50  76 W14G21    29.54R
SYLVANIA       CLEAR    N/A N/A N/A NW15G23   29.53R
CLAXTON        FAIR     N/A N/A N/A W16G24    29.56R

...CSRA...CENTRAL AND FAR SOUTHEAST GEORGIA...

CITY           SKY/WX    TMP DP  RH WIND       PRES   REMARKS
THOMSON        CLEAR     56  49  79 NW8       29.59R
AUGUSTA-BUSH   MOCLDY    58  47  66 W17G23    29.50R
AUGUSTA-DANIEL MOCLDY    57  45  64 W14G21    29.52R
SWAINSBORO     FAIR      55  46  71 W14       29.57R
VIDALIA        CLEAR     57  50  77 NW9G17    29.59R
EASTMAN        FAIR      57  40  52 NW6       29.64R
HAZLEHURST     FAIR      56  51  80 W6        29.60R
ALMA           CLEAR     56  48  74 W7        29.60R
WAYCROSS       CLEAR     58  54  86 W6        29.62R
JESUP          FAIR      59  46  63 NW10      29.59R
BAXLEY         FAIR      57  52  82 W7        29.60R
BRUNSWICK      CLEAR     59  52  77 W12G23    29.58R
SAINT SIMONS   CLEAR     58  49  72 W14G29    29.57R

$$

SCZ027-028-034-036>038-045-046-048>050-GAZ119-141-240300-
...LAKE AND SUPPLEMENTAL COASTAL OBSERVATIONS...

STATION/POSITION TIME  TEMP    WIND        PRES    WAVE   SWELL
                       AIR SEA DIR/SP/G            HT/PER HT/PER/DIR
                 (UTC) (F)     (DEG/KT/KT) (MB)    (FT/S) (FT/S/D)
WINYAH BAY       NOT AVBL
LAKE MURRAY      0120   56     300/  3/  5  997.0R
ACE BASIN NERRS  0045   56        CALM      997.0
FORT PULASKI     0124   60 59  280/ 17/ 20  998.8
SAPELO ISLAND    0100   60     280/ 15     1000.0

$$

ANZ835-935-AMZ111-154-330-350-352-354-370-450-454-472-240300-
...C-MAN AND BUOY OBSERVATIONS...

STATION/POSITION TIME  TEMP    WIND        PRES    WAVE   SWELL
                       AIR SEA DIR/SP/G            HT/PER HT/PER/DIR
                 (UTC) (F)     (DEG/KT/KT) (MB)    (FT/S) (FT/S/D)
BUOY 41004       0050   61 69  280/ 21/ 27  995.3    8/ 8   5/200/ 8
BUOY 41008       0050   61 60  260/ 21/ 27  998.5    4/ 5
FOLLY BEACH CMAN 0100   56     240/  4/  5  997.0R
CAPERS NEARSHORE 0108   57 57  270/ 10/ 14  996.2R
FRIPP NEARSHORE  0108   60 58  280/ 14/ 17  997.3R


STATION/POSITION TIME  TEMP    WIND        PRES    WAVE   SWELL
                       AIR SEA DIR/SP/G            HT/PER HT/PER/DIR
                 (UTC) (F)     (DEG/KT/KT) (MB)    (FT/S) (FT/S/D)
5E ST. MARYS GA  0130      62                N/A     3/ 3   2/ 90/13
FRYING PAN BUOY  0150   60 70  280/ 21/ 29  994.9R   9/10   8/190/10
BUOY 41025       0150   62 76  300/ 14/ 19  990.6R   7/11   7/130/11
CAPE LOOKOUT NC  0100   55     260/  8/ 10  991.2R
BUOY 41002       0050   69 71  260/ 23/ 29  993.0   14/ 9
BUOY 41010       NOT AVBL
ST AUGUSTINE FL  0200   61 63  290/ 10/ 13 1004.3R


$$




USA.gov is the U.S. government's official web portal to all federal, state and local government web resources and services.